Location: Berg
(48.5667°N, 13.9833°E)
Time: 04:32:04
(UTC+00:00)

CZ-2D R/B - Pass Details

Date: 09 April 2020
Orbit: 791 x 845 km, 98.7° (Epoch: 29 May)

Event Time Altitude Azimuth Distance (km) Brightness Sun altitude
Rises 23:15:36 0° 29° (NNE) 3,417 6.2 -33.4°
Reaches altitude 10° 23:19:07 10° 53° (NE) 2,476 5.0 -33.3°
Enters shadow 23:21:39 15° 80° (E) 2,146 4.4 -33.3°
